Tracking 30264 objects as of 16-Feb-2025
HD Live streaming from Space Station
objects crossing your sky now

SL-8 DEB

Track SL-8 DEB now!
10-day predictions


NORAD ID: 27769
Int'l Code: 2002-054E
Perigee: 623.6 km
Apogee: 664.5 km
Inclination: 98.3 °
Period: 97.5 minutes
Semi major axis: 7015 km
RCS: 0.0082 m2 (small)
Launch date: November 28, 2002
Source: Commonwealth of Independent States (former USSR) (CIS)
Launch site: PLESETSK MISSILE AND SPACE COMPLEX (PKMTR)

Note: This is SATELLITE DEBRIS
Your satellite tracking list
Your tracking list is empty




NASA's NSSDC Master Catalog

Two Line Element Set (TLE):
1 27769U 02054E   25047.53967151  .00007853  00000-0  10979-2 0  9998
2 27769  98.2876 261.9579 0029118 185.3645 174.7257 14.77597459185808
Source of the keplerian elements: AFSPC